Weather History for Defiance, OH

Change the Weather History Date:

Monday, April 7, 2014

  Actual Average Record
Temperature  
Mean Temperature 44 °F -  
Max Temperature 53 °F 54 °F 79 °F (2001)
Min Temperature 35 °F 32 °F 4 °F (1982)
Degree Days  
Heating Degree Days 22    
Moisture  
Dew Point 35 °F    
Average Humidity 76    
Maximum Humidity 89    
Minimum Humidity 50    
Precipitation  
Precipitation 0.55 in - - ()
Sea Level Pressure  
Sea Level Pressure 29.67 in    
Wind  
Wind Speed 9 mph (NNE)    
Max Wind Speed 21 mph    
Max Gust Speed 31 mph    
Visibility 7 miles    
Events Rain    
Averages and records for this station are not official NWS values.
T = Trace of Precipitation, MM = Missing Value Source: NWS Daily Summary

Daily Weather History Graph

Daily Weather History Graph

Search for Another Location

Airport:

Trip Planner

Search our weather history database for the weather conditions in past years. The results will help you decide how hot, cold, wet, or windy it might be!

Date:

Astronomy

Apr. 07, 2014 Rise Set
Actual Time 7:10 AM EDT 8:09 PM EDT
Civil Twilight 6:42 AM EDT 8:37 PM EDT
Nautical Twilight 6:09 AM EDT 9:11 PM EDT
Astronomical Twilight 5:34 AM EDT 9:46 PM EDT
Moon 1:04 PM EDT (4/7) 2:47 AM EDT (4/7)
Length of Visible Light 13h 54m
Length of Day
12h 58m
First Quarter, 53% of the Moon is Illuminated
Apr 7
First Quarter
Apr 15
Full
Apr 22
Last Quarter
Apr 29
New
May 6
First Quarter

Hourly Weather History & Observations

Time (EDT) Temp. Windchill Dew Point Humidity Pressure Visibility Wind Dir Wind Speed Gust Speed Precip Events Conditions
12:53 AM 39.0 °F 36.8 °F 28.9 °F 67% 30.00 in 10.0 mi NE 3.5 mph - N/A   Clear
1:53 AM 37.9 °F 34.4 °F 27.0 °F 65% 29.99 in 10.0 mi NE 4.6 mph - N/A   Clear
2:53 AM 36.0 °F 31.1 °F 26.1 °F 67% 29.96 in 10.0 mi NE 5.8 mph - N/A   Clear
3:53 AM 35.1 °F 28.6 °F 26.1 °F 70% 29.93 in 10.0 mi NNE 8.1 mph - N/A   Clear
4:53 AM 35.1 °F 28.6 °F 27.0 °F 72% 29.88 in 10.0 mi NE 8.1 mph - N/A   Clear
5:53 AM 35.1 °F 29.3 °F 27.0 °F 72% 29.87 in 10.0 mi NNE 6.9 mph - N/A   Clear
6:53 AM 36.0 °F 30.3 °F 28.0 °F 73% 29.86 in 10.0 mi ENE 6.9 mph - N/A   Clear
7:53 AM 37.0 °F 31.0 °F 28.9 °F 73% 29.85 in 10.0 mi NE 8.1 mph - N/A   Scattered Clouds
8:53 AM 37.9 °F 32.7 °F 30.0 °F 73% 29.86 in 10.0 mi NNE 6.9 mph - N/A   Overcast
9:53 AM 39.9 °F 33.4 °F 30.9 °F 70% 29.83 in 10.0 mi NNE 10.4 mph - N/A   Mostly Cloudy
10:53 AM 43.0 °F 41.3 °F 30.9 °F 62% 29.80 in 10.0 mi Variable 3.5 mph - N/A   Overcast
11:53 AM 48.0 °F - 33.1 °F 56% 29.76 in 10.0 mi ENE 10.4 mph - N/A   Mostly Cloudy
12:53 PM 52.0 °F - 34.0 °F 50% 29.70 in 10.0 mi East 11.5 mph - N/A   Mostly Cloudy
1:53 PM 52.0 °F - 35.1 °F 53% 29.65 in 10.0 mi ENE 10.4 mph - N/A   Overcast
2:53 PM 51.1 °F - 36.0 °F 56% 29.58 in 10.0 mi NE 6.9 mph - 0.00 in   Overcast
4:53 PM 44.1 °F 37.7 °F 39.0 °F 82% 29.59 in 3.0 mi NNE 12.7 mph - 0.12 in Rain Rain
5:53 PM 44.1 °F 37.7 °F 39.0 °F 82% 29.55 in 4.0 mi NNE 12.7 mph - 0.06 in Rain Rain
6:53 PM 44.1 °F 36.5 °F 39.9 °F 85% 29.53 in 4.0 mi North 17.3 mph 21.9 mph 0.09 in Rain Light Rain
7:08 PM 44.1 °F 35.9 °F 39.9 °F 85% 29.51 in 3.0 mi North 19.6 mph 26.5 mph 0.04 in Rain Rain
7:15 PM 44.1 °F 36.8 °F 39.9 °F 85% 29.51 in 3.0 mi North 16.1 mph 27.6 mph 0.05 in Rain Rain
7:53 PM 44.1 °F 36.2 °F 39.9 °F 85% 29.50 in 6.0 mi North 18.4 mph 27.6 mph 0.08 in Rain Light Rain
8:25 PM 43.0 °F 34.2 °F 39.0 °F 86% 29.46 in 8.0 mi North 20.7 mph 28.8 mph 0.00 in   Overcast
8:41 PM 43.0 °F 34.8 °F 39.0 °F 86% 29.46 in 8.0 mi North 18.4 mph 31.1 mph 0.00 in   Overcast
8:53 PM 43.0 °F 35.1 °F 39.0 °F 86% 29.49 in 7.0 mi North 17.3 mph 27.6 mph 0.00 in Rain Light Rain
9:11 PM 43.0 °F 34.8 °F 39.9 °F 89% 29.50 in 4.0 mi North 18.4 mph - 0.02 in Rain Rain
9:22 PM 43.0 °F 35.1 °F 39.9 °F 89% 29.50 in 2.5 mi North 17.3 mph 24.2 mph 0.07 in Rain Rain
9:33 PM 43.0 °F 35.4 °F 39.9 °F 89% 29.50 in 3.0 mi North 16.1 mph 25.3 mph 0.09 in Rain Light Rain
9:44 PM 43.0 °F 35.4 °F 39.9 °F 89% 29.50 in 3.0 mi North 16.1 mph - 0.12 in Rain Rain
9:53 PM 43.0 °F 35.7 °F 39.0 °F 86% 29.52 in 3.0 mi North 15.0 mph 25.3 mph 0.15 in Rain Rain
10:53 PM 43.0 °F 36.4 °F 39.0 °F 86% 29.50 in 6.0 mi North 12.7 mph - 0.04 in Rain Light Rain
11:53 PM 43.0 °F 36.4 °F 39.9 °F 89% 29.50 in 7.0 mi NNW 12.7 mph - 0.01 in Rain Light Rain